period_start,C,m1,H,J0,J1,J2,J3,J4,J5,JA,JB,JC,JD,JJ,JK,JN,#
2013-12-06 00:00:19,0.10,2.78,0.00,26.65,27.37,30.45,5.94,30.50,1025.89,2040.00,2479.79,2596.74,2825.33,350.89,324.10,15.02,0000 0000 0000 0000 000000
2013-12-06 00:01:20,0.22,2.78,0.00,26.64,27.36,30.45,5.94,30.83,1025.89,2040.00,2479.33,2596.33,2825.12,349.86,322.82,15.02,0000 0000 0000 0000 000000
2013-12-06 00:02:20,0.24,2.78,0.00,26.69,27.37,30.50,5.99,30.79,1025.89,2040.00,2479.11,2596.12,2825.02,349.68,322.38,15.03,0000 0000 0000 0000 000000
2013-12-06 00:03:20,0.12,2.78,0.00,26.70,27.37,30.48,5.92,30.83,1025.89,2040.00,2478.91,2596.04,2824.71,350.07,323.13,15.04,0000 0000 0000 0000 000000
2013-12-06 00:04:20,0.13,2.78,0.00,26.68,27.37,30.51,5.81,30.50,1025.89,2040.00,2478.44,2595.89,2824.30,349.60,322.54,15.04,0000 0000 0000 0000 000000
2013-12-06 00:05:21,0.21,2.79,0.00,26.69,27.37,30.51,5.97,30.75,1025.89,2040.00,2478.15,2595.46,2824.10,351.07,323.88,15.05,0000 0000 0000 0000 000000
2013-12-06 00:06:21,0.23,2.79,0.00,26.69,27.37,30.51,5.86,30.58,1025.89,2040.00,2478.02,2595.17,2824.03,350.18,322.89,15.05,0000 0000 0000 0000 000000
2013-12-06 00:07:22,0.13,2.79,0.00,26.70,27.37,30.47,5.86,30.63,1025.89,2040.00,2477.57,2595.06,2823.77,349.88,322.78,15.06,0000 0000 0000 0000 000000
2013-12-06 00:08:22,0.17,2.79,0.00,26.66,27.37,30.45,5.95,30.79,1025.89,2040.00,2477.21,2594.97,2823.30,351.22,324.05,15.06,0000 0000 0000 0000 000000
2013-12-06 00:09:22,0.18,2.79,0.00,26.68,27.37,30.46,5.73,30.63,1025.89,2040.00,2477.07,2594.68,2823.11,348.63,321.65,15.07,0000 0000 0000 0000 000000
2013-12-06 00:10:22,0.16,2.79,0.00,26.67,27.37,30.48,5.90,30.58,1025.89,2040.00,2476.79,2594.28,2823.02,350.17,322.87,15.08,0000 0000 0000 0000 000000
2013-12-06 00:11:23,0.18,2.79,0.00,26.67,27.37,30.48,5.89,30.50,1025.89,2040.00,2476.33,2594.10,2822.79,350.23,322.82,15.08,0000 0000 0000 0000 000000
2013-12-06 00:12:23,0.19,2.79,0.00,26.67,27.37,30.50,5.83,30.67,1025.89,2040.00,2476.12,2594.03,2822.37,349.75,322.46,15.09,0000 0000 0000 0000 000000
2013-12-06 00:13:23,0.14,2.79,0.00,26.68,27.37,30.49,5.86,30.54,1025.89,2040.00,2476.01,2593.94,2822.13,350.68,323.32,15.09,0000 0000 0000 0000 000000
2013-12-06 00:14:23,0.10,2.79,0.00,26.68,27.37,30.48,5.87,30.83,1025.89,2040.00,2475.58,2593.50,2822.04,350.03,322.93,15.10,0000 0000 0000 0000 000000
2013-12-06 00:15:24,0.23,2.80,0.00,26.67,27.37,30.50,5.90,30.63,1025.89,2040.00,2475.23,2593.19,2821.94,350.12,323.18,15.11,0000 0000 0000 0000 000000
2013-12-06 00:16:24,0.18,2.80,0.00,26.66,27.37,30.46,6.07,30.83,1025.89,2040.00,2475.06,2593.07,2821.56,350.62,323.51,15.11,0000 0000 0000 0000 000000
2013-12-06 00:17:24,0.14,2.80,0.00,26.66,27.37,30.48,5.87,30.88,1025.87,2040.00,2474.73,2593.00,2821.21,350.66,323.40,15.12,0000 0000 0000 0000 000000
2013-12-06 00:18:24,0.14,2.80,0.00,26.67,27.37,30.54,5.86,30.75,1025.88,2040.00,2474.28,2592.82,2821.07,348.47,321.55,15.12,0000 0000 0000 0000 000000
2013-12-06 00:19:24,0.18,2.80,0.00,26.69,27.37,30.53,5.89,30.54,1025.89,2040.00,2474.09,2592.37,2820.97,349.97,322.88,15.13,0000 0000 0000 0000 000000
2013-12-06 00:20:25,0.20,2.80,0.00,26.72,27.37,30.49,5.98,30.67,1025.89,2040.00,2473.94,2592.14,2820.54,349.71,322.77,15.14,0000 0000 0000 0000 000000
2013-12-06 00:21:25,0.18,2.80,0.00,26.73,27.37,30.50,5.88,30.58,1025.89,2040.00,2473.43,2592.05,2820.23,350.59,323.05,15.14,0000 0000 0000 0000 000000
2013-12-06 00:22:25,0.18,2.80,0.00,26.72,27.37,30.47,6.01,30.58,1025.89,2040.00,2473.14,2591.91,2820.08,351.01,323.80,15.15,0000 0000 0000 0000 000000
2013-12-06 00:23:26,0.13,2.80,0.00,26.71,27.37,30.48,5.87,30.92,1025.89,2040.00,2472.96,2591.54,2819.97,350.16,323.02,15.15,0000 0000 0000 0000 000000
2013-12-06 00:24:26,0.18,2.80,0.00,26.72,27.37,30.47,5.95,30.92,1025.88,2040.00,2472.50,2591.21,2819.51,350.60,323.41,15.16,0000 0000 0000 0000 000000
2013-12-06 00:25:26,0.25,2.81,0.00,26.72,27.37,30.50,5.85,30.96,1025.83,2040.00,2472.19,2591.07,2819.20,348.63,321.59,15.16,0000 0000 0000 0000 000000
2013-12-06 00:26:27,0.14,2.81,0.00,26.69,27.37,30.53,5.95,30.88,1025.69,2040.00,2472.04,2591.00,2819.07,349.94,322.79,15.17,0000 0000 0000 0000 000000
2013-12-06 00:27:27,0.08,2.81,0.00,26.71,27.37,30.52,5.96,30.71,1025.60,2040.00,2471.71,2590.78,2818.99,350.88,323.59,15.18,0000 0000 0000 0000 000000
2013-12-06 00:28:27,0.17,2.81,0.00,26.71,27.37,30.54,5.88,30.67,1025.62,2040.00,2471.30,2590.33,2818.59,350.09,322.87,15.18,0000 0000 0000 0000 000000
2013-12-06 00:29:27,0.27,2.81,0.00,26.69,27.37,30.50,5.99,30.79,1025.60,2040.00,2471.11,2590.13,2818.25,349.74,322.57,15.19,0000 0000 0000 0000 000000
2013-12-06 00:30:28,0.15,2.81,0.00,26.70,27.37,30.50,5.94,30.75,1025.67,2040.00,2470.96,2590.04,2818.09,350.29,323.09,15.19,0000 0000 0000 0000 000000
2013-12-06 00:31:28,0.09,2.81,0.00,26.71,27.37,30.51,5.85,30.21,1025.59,2040.00,2470.49,2589.98,2818.03,350.04,322.53,15.20,0000 0000 0000 0000 000000
2013-12-06 00:32:28,0.14,2.81,0.00,26.69,27.37,30.52,6.11,30.67,1025.56,2040.00,2470.17,2589.66,2817.91,350.76,323.42,15.21,0000 0000 0000 0000 000000
2013-12-06 00:33:28,0.19,2.81,0.00,26.69,27.37,30.54,5.91,30.54,1025.55,2040.00,2470.06,2589.28,2817.46,351.25,323.57,15.21,0000 0000 0000 0000 000000
2013-12-06 00:34:28,0.21,2.82,0.00,26.70,27.37,30.58,5.82,30.71,1025.57,2040.00,2469.77,2589.09,2817.17,349.29,322.04,15.22,0000 0000 0000 0000 000000
2013-12-06 00:35:29,0.16,2.82,0.00,26.69,27.37,30.52,5.82,30.58,1025.53,2040.00,2469.32,2589.03,2817.06,348.89,322.16,15.22,0000 0000 0000 0000 000000
2013-12-06 00:36:29,0.13,2.82,0.00,26.70,27.37,30.56,5.96,30.46,1025.46,2040.00,2469.11,2588.91,2816.98,350.93,323.27,15.23,0000 0000 0000 0000 000000
2013-12-06 00:37:29,0.12,2.82,0.00,26.70,27.37,30.52,5.93,30.88,1025.47,2039.99,2468.97,2588.49,2816.64,349.81,322.91,15.23,0000 0000 0000 0000 000000
2013-12-06 00:38:30,0.21,2.82,0.00,26.71,27.38,30.53,5.85,30.79,1025.44,2039.98,2468.52,2588.18,2816.26,348.78,322.06,15.24,0000 0000 0000 0000 000000
2013-12-06 00:39:30,0.24,2.82,0.00,26.71,27.38,30.55,5.98,30.67,1025.45,2039.98,2468.20,2588.06,2816.09,350.25,323.34,15.25,0000 0000 0000 0000 000000
2013-12-06 00:40:30,0.11,2.82,0.00,26.68,27.38,30.50,5.98,30.46,1025.43,2039.99,2468.03,2588.00,2816.01,350.00,322.76,15.25,0000 0000 0000 0000 000000
2013-12-06 00:41:31,0.08,2.82,0.00,26.67,27.38,30.50,5.94,30.54,1025.42,2039.98,2467.59,2587.81,2815.78,349.73,322.53,15.26,0000 0000 0000 0000 000000
2013-12-06 00:42:31,0.18,2.82,0.00,26.68,27.39,30.50,5.94,30.33,1025.41,2039.98,2467.22,2587.38,2815.35,350.86,323.58,15.26,0000 0000 0000 0000 000000
2013-12-06 00:43:32,0.28,2.82,0.00,26.63,27.39,30.49,5.92,30.83,1025.42,2039.98,2467.06,2587.14,2815.13,349.52,322.36,15.27,0000 0000 0000 0000 000000
2013-12-06 00:44:32,0.15,2.83,0.00,26.62,27.38,30.49,6.07,30.96,1025.42,2039.98,2466.71,2587.03,2815.03,352.08,324.74,15.28,0000 0000 0000 0000 000000
2013-12-06 00:45:32,0.12,2.83,0.00,26.64,27.39,30.50,6.03,30.79,1025.41,2039.98,2466.28,2586.90,2814.83,350.48,323.32,15.28,0000 0000 0000 0000 000000
2013-12-06 00:46:32,0.18,2.83,0.00,26.64,27.39,30.54,5.90,30.58,1025.42,2039.99,2466.10,2586.54,2814.41,349.81,322.63,15.29,0000 0000 0000 0000 000000
2013-12-06 00:47:33,0.22,2.83,0.00,26.65,27.39,30.53,6.02,30.83,1025.41,2039.99,2466.00,2586.24,2814.15,350.29,323.06,15.29,0000 0000 0000 0000 000000
2013-12-06 00:48:33,0.18,2.83,0.00,26.66,27.39,30.54,5.92,30.50,1025.41,2039.99,2465.55,2586.09,2814.05,349.70,322.11,15.30,0000 0000 0000 0000 000000
2013-12-06 00:49:33,0.14,2.83,0.00,26.66,27.39,30.52,5.95,30.63,1025.41,2039.98,2465.21,2586.02,2814.01,350.25,323.01,15.31,0000 0000 0000 0000 000000
2013-12-06 00:50:33,0.10,2.83,0.00,26.64,27.40,30.52,5.87,30.58,1025.41,2039.99,2465.07,2585.89,2813.75,350.02,322.81,15.31,0000 0000 0000 0000 000000
2013-12-06 00:51:34,0.12,2.83,0.00,26.66,27.40,30.51,5.95,30.67,1025.41,2039.98,2464.89,2585.49,2813.36,349.91,322.70,15.32,0000 0000 0000 0000 000000
2013-12-06 00:52:34,0.23,2.83,0.00,26.65,27.40,30.51,5.87,30.71,1025.41,2039.96,2464.41,2585.20,2813.14,350.27,323.04,15.32,0000 0000 0000 0000 000000
2013-12-06 00:53:34,0.19,2.83,0.00,26.66,27.40,30.50,5.93,30.88,1025.41,2039.97,2464.15,2585.07,2813.05,348.57,321.46,15.33,0000 0000 0000 0000 000000
2013-12-06 00:54:34,0.11,2.83,0.00,26.65,27.40,30.50,5.94,30.67,1025.41,2039.98,2464.05,2585.02,2812.99,350.74,322.96,15.33,0000 0000 0000 0000 000000
2013-12-06 00:55:35,0.08,2.84,0.00,26.68,27.40,30.51,6.02,30.79,1025.41,2039.99,2463.66,2584.96,2812.66,350.44,323.21,15.34,0000 0000 0000 0000 000000
2013-12-06 00:56:35,0.16,2.84,0.00,26.65,27.40,30.51,5.93,30.63,1025.41,2039.98,2463.24,2584.61,2812.28,350.32,323.07,15.35,0000 0000 0000 0000 000000
2013-12-06 00:57:35,0.25,2.84,0.00,26.62,27.40,30.52,5.85,30.38,1025.41,2039.98,2463.07,2584.24,2812.09,349.58,322.43,15.35,0000 0000 0000 0000 000000
2013-12-06 00:58:36,0.18,2.84,0.00,26.62,27.40,30.50,6.02,30.63,1025.41,2039.98,2462.74,2584.08,2812.02,350.93,323.68,15.36,0000 0000 0000 0000 000000
2013-12-06 00:59:36,0.15,2.84,0.00,26.64,27.40,30.49,5.87,30.42,1025.41,2039.99,2462.28,2584.01,2811.63,349.55,322.82,15.36,0000 0000 0000 0000 000000
2013-12-06 01:00:36,0.18,2.84,0.00,26.62,27.40,30.51,5.92,30.50,1025.41,2039.98,2462.11,2583.83,2811.25,350.14,322.94,15.37,0000 0000 0000 0000 000000
2013-12-06 01:01:37,0.17,2.84,0.00,26.67,27.40,30.53,5.92,30.63,1025.41,2039.98,2461.94,2583.35,2811.09,349.71,322.50,15.38,0000 0000 0000 0000 000000
2013-12-06 01:02:37,0.20,2.84,0.00,26.69,27.40,30.54,5.88,30.63,1025.41,2039.99,2461.44,2583.13,2811.00,349.75,322.76,15.38,0000 0000 0000 0000 000000
2013-12-06 01:03:37,0.17,2.84,0.00,26.69,27.40,30.57,5.94,30.67,1025.41,2039.97,2461.16,2583.04,2810.75,349.92,322.67,15.39,0000 0000 0000 0000 000000
2013-12-06 01:04:38,0.13,2.85,0.00,26.69,27.40,30.55,5.91,30.63,1025.41,2039.97,2460.92,2582.88,2810.31,350.49,323.54,15.39,0000 0000 0000 0000 000000
2013-12-06 01:05:38,0.21,2.85,0.00,26.69,27.40,30.53,5.97,30.67,1025.41,2039.98,2460.42,2582.42,2810.11,350.16,322.89,15.40,0000 0000 0000 0000 000000
2013-12-06 01:06:38,0.25,2.85,0.00,26.71,27.40,30.55,5.78,30.63,1025.41,2039.98,2460.15,2582.16,2810.03,348.98,321.77,15.40,0000 0000 0000 0000 000000
2013-12-06 01:07:38,0.14,2.85,0.00,26.73,27.40,30.54,5.96,30.75,1025.41,2039.98,2459.91,2582.05,2809.81,349.77,322.11,15.41,0000 0000 0000 0000 000000
2013-12-06 01:08:38,0.15,2.85,0.00,26.74,27.40,30.51,6.06,30.88,1025.41,2039.98,2459.41,2581.90,2809.36,350.44,322.92,15.42,0000 0000 0000 0000 000000
2013-12-06 01:09:39,0.23,2.85,0.00,26.73,27.40,30.54,5.86,30.42,1025.41,2039.98,2459.14,2581.42,2809.13,350.01,322.71,15.42,0000 0000 0000 0000 000000
2013-12-06 01:10:39,0.23,2.85,0.00,26.70,27.40,30.52,5.93,30.58,1025.41,2039.97,2458.73,2581.15,2808.90,350.47,323.37,15.43,0000 0000 0000 0000 000000
2013-12-06 01:11:40,0.21,2.85,0.00,26.65,27.40,30.52,5.92,30.42,1025.41,2039.96,2458.27,2581.05,2808.40,349.39,322.12,15.43,0000 0000 0000 0000 000000
2013-12-06 01:12:40,0.19,2.86,0.00,26.66,27.40,30.53,5.92,30.33,1025.41,2039.96,2458.07,2580.78,2808.15,350.20,322.82,15.44,0000 0000 0000 0000 000000
2013-12-06 01:13:40,0.20,2.86,0.00,26.65,27.40,30.52,5.98,30.54,1025.41,2039.97,2457.58,2580.36,2808.05,350.62,323.07,15.45,0000 0000 0000 0000 000000
2013-12-06 01:14:40,0.22,2.86,0.00,26.65,27.40,30.52,5.83,30.46,1025.41,2039.98,2457.21,2580.14,2807.96,349.73,322.50,15.45,0000 0000 0000 0000 000000
2013-12-06 01:15:40,0.17,2.86,0.00,26.62,27.40,30.56,5.74,30.67,1025.41,2039.97,2457.06,2580.04,2807.58,348.08,321.05,15.46,0000 0000 0000 0000 000000
2013-12-06 01:16:41,0.14,2.86,0.00,26.65,27.40,30.61,6.04,30.75,1025.41,2039.98,2456.59,2579.82,2807.21,349.54,322.36,15.46,0000 0000 0000 0000 000000
2013-12-06 01:17:41,0.23,2.86,0.00,26.64,27.40,30.57,5.82,30.67,1025.41,2039.98,2456.22,2579.36,2807.07,349.68,322.49,15.47,0000 0000 0000 0000 000000
2013-12-06 01:18:41,0.23,2.86,0.00,26.64,27.40,30.54,5.82,30.58,1025.41,2039.97,2456.03,2579.13,2806.80,349.91,322.71,15.48,0000 0000 0000 0000 000000
2013-12-06 01:19:42,0.18,2.86,0.00,26.65,27.40,30.56,6.06,30.75,1025.41,2039.98,2455.57,2579.04,2806.34,351.51,324.18,15.48,0000 0000 0000 0000 000000
2013-12-06 01:20:42,0.18,2.86,0.00,26.67,27.40,30.59,5.93,30.67,1025.41,2039.97,2455.21,2578.90,2806.12,349.85,322.63,15.49,0000 0000 0000 0000 000000
2013-12-06 01:21:42,0.17,2.87,0.00,26.67,27.40,30.56,6.00,30.67,1025.41,2039.96,2455.03,2578.44,2806.02,350.89,323.59,15.49,0000 0000 0000 0000 000000
2013-12-06 01:22:43,0.20,2.87,0.00,26.64,27.40,30.57,5.96,30.46,1025.41,2039.95,2454.52,2578.16,2805.74,350.74,323.48,15.50,0000 0000 0000 0000 000000
2013-12-06 01:23:43,0.22,2.87,0.00,26.66,27.40,30.58,5.93,30.67,1025.41,2039.95,2454.20,2578.05,2805.32,350.34,323.25,15.50,0000 0000 0000 0000 000000
2013-12-06 01:24:43,0.16,2.87,0.00,26.70,27.40,30.56,5.92,30.58,1025.41,2039.96,2454.07,2578.01,2805.11,350.47,322.76,15.51,0000 0000 0000 0000 000000
2013-12-06 01:25:43,0.07,2.87,0.00,26.69,27.40,30.53,5.96,30.63,1025.43,2039.95,2453.95,2577.91,2805.04,349.86,322.63,15.52,0000 0000 0000 0000 000000
2013-12-06 01:26:44,0.08,2.87,0.00,26.69,27.40,30.54,5.92,30.46,1025.43,2039.96,2453.62,2577.51,2805.00,350.15,322.89,15.52,0000 0000 0000 0000 000000
2013-12-06 01:27:44,0.20,2.87,0.00,26.68,27.40,30.57,5.94,30.50,1025.44,2039.98,2453.23,2577.19,2804.86,350.71,323.34,15.53,0000 0000 0000 0000 000000
2013-12-06 01:28:44,0.23,2.87,0.00,26.65,27.40,30.57,5.90,30.50,1025.43,2039.97,2453.08,2577.07,2804.39,349.90,322.70,15.53,0000 0000 0000 0000 000000
2013-12-06 01:29:44,0.13,2.87,0.00,26.66,27.40,30.57,5.98,30.67,1025.45,2039.97,2452.95,2577.01,2804.15,350.12,322.58,15.54,0000 0000 0000 0000 000000
2013-12-06 01:30:45,0.09,2.87,0.00,26.67,27.40,30.56,5.94,30.79,1025.43,2039.95,2452.57,2576.99,2804.05,350.25,323.41,15.55,0000 0000 0000 0000 000000
2013-12-06 01:31:45,0.11,2.87,0.00,26.68,27.40,30.57,5.79,30.67,1025.44,2039.97,2452.24,2576.82,2804.01,350.11,322.45,15.55,0000 0000 0000 0000 000000
2013-12-06 01:32:46,0.15,2.88,0.00,26.67,27.40,30.56,5.88,30.79,1025.42,2039.95,2452.08,2576.46,2803.94,349.79,322.57,15.56,0000 0000 0000 0000 000000
2013-12-06 01:33:46,0.14,2.88,0.00,26.62,27.40,30.53,5.92,30.71,1025.43,2039.94,2452.02,2576.19,2803.64,350.79,323.56,15.56,0000 0000 0000 0000 000000
2013-12-06 01:34:46,0.13,2.88,0.00,26.68,27.40,30.56,5.80,30.50,1025.41,2039.93,2451.83,2576.08,2803.27,349.51,322.31,15.57,0000 0000 0000 0000 000000
2013-12-06 01:35:46,0.11,2.88,0.00,26.70,27.40,30.55,5.93,30.58,1025.41,2039.90,2451.46,2576.02,2803.11,350.03,322.77,15.57,0000 0000 0000 0000 000000
2013-12-06 01:36:47,0.08,2.88,0.00,26.68,27.40,30.53,6.00,31.13,1025.41,2039.89,2451.17,2575.97,2803.03,349.87,322.63,15.58,0000 0000 0000 0000 000000
2013-12-06 01:37:47,0.09,2.88,0.00,26.66,27.40,30.51,5.90,30.83,1025.41,2039.89,2451.06,2575.81,2802.99,349.34,322.50,15.59,0000 0000 0000 0000 000000
2013-12-06 01:38:47,0.09,2.88,0.00,26.69,27.40,30.54,5.82,30.50,1025.41,2039.91,2451.00,2575.50,2802.77,349.13,321.94,15.59,0000 0000 0000 0000 000000
2013-12-06 01:39:47,0.20,2.88,0.00,26.67,27.40,30.55,5.99,30.67,1025.41,2039.93,2450.70,2575.22,2802.36,349.98,322.75,15.60,0000 0000 0000 0000 000000
2013-12-06 01:40:48,0.21,2.88,0.00,26.63,27.40,30.54,5.98,30.83,1025.41,2039.95,2450.29,2575.09,2802.14,350.59,323.35,15.60,0000 0000 0000 0000 000000
2013-12-06 01:41:48,0.15,2.88,0.00,26.62,27.40,30.57,5.97,30.71,1025.41,2039.94,2450.11,2575.03,2802.05,349.96,322.70,15.61,0000 0000 0000 0000 000000
2013-12-06 01:42:48,0.08,2.88,0.00,26.64,27.40,30.56,5.97,31.00,1025.41,2039.95,2450.04,2574.95,2802.01,349.71,322.41,15.62,0000 0000 0000 0000 000000
2013-12-06 01:43:49,0.06,2.88,0.00,26.64,27.40,30.59,5.96,31.00,1025.41,2039.96,2449.79,2574.72,2801.81,350.61,323.33,15.62,0000 0000 0000 0000 000000
2013-12-06 01:44:49,0.22,2.89,0.00,26.63,27.40,30.56,6.00,30.96,1025.41,2039.93,2449.33,2574.33,2801.35,350.61,323.27,15.63,0000 0000 0000 0000 000000
2013-12-06 01:45:49,0.20,2.89,0.00,26.62,27.40,30.51,5.90,30.71,1025.41,2039.88,2449.12,2574.12,2801.13,349.32,322.20,15.63,0000 0000 0000 0000 000000
2013-12-06 01:46:50,0.11,2.89,0.00,26.69,27.41,30.59,5.91,30.63,1025.41,2039.89,2449.04,2574.04,2801.05,349.66,322.44,15.64,0000 0000 0000 0000 000000
2013-12-06 01:47:50,0.08,2.89,0.00,26.68,27.41,30.56,5.89,30.71,1025.41,2039.90,2448.93,2574.01,2801.01,348.92,322.16,15.65,0000 0000 0000 0000 000000
2013-12-06 01:48:50,0.05,2.89,0.00,26.71,27.41,30.57,5.83,30.67,1025.41,2039.89,2448.52,2574.00,2800.93,350.39,322.69,15.65,0000 0000 0000 0000 000000
2013-12-06 01:49:50,0.10,2.89,0.00,26.73,27.41,30.60,5.89,30.67,1025.41,2039.91,2448.19,2573.86,2800.53,350.74,323.39,15.66,0000 0000 0000 0000 000000
2013-12-06 01:50:51,0.21,2.89,0.00,26.75,27.41,30.56,5.93,30.67,1025.41,2039.93,2448.06,2573.40,2800.20,350.45,323.09,15.66,0000 0000 0000 0000 000000
2013-12-06 01:51:51,0.22,2.89,0.00,26.75,27.42,30.60,5.94,30.63,1025.41,2039.93,2447.68,2573.15,2800.07,349.62,322.52,15.67,0000 0000 0000 0000 000000
2013-12-06 01:52:51,0.17,2.89,0.00,26.72,27.42,30.58,5.81,30.67,1025.41,2039.88,2447.26,2573.03,2799.98,349.38,322.13,15.67,0000 0000 0000 0000 000000
2013-12-06 01:53:52,0.09,2.89,0.00,26.73,27.42,30.59,5.93,30.88,1025.41,2039.87,2447.08,2572.75,2799.53,349.69,322.41,15.68,0000 0000 0000 0000 000000
2013-12-06 01:54:52,0.21,2.89,0.00,26.71,27.42,30.55,5.89,30.75,1025.41,2039.84,2446.64,2572.33,2799.19,350.20,322.90,15.69,0000 0000 0000 0000 000000
2013-12-06 01:55:53,0.27,2.90,0.00,26.70,27.42,30.54,5.98,31.00,1025.41,2039.88,2446.26,2572.13,2799.07,348.49,321.34,15.69,0000 0000 0000 0000 000000
2013-12-06 01:56:53,0.15,2.90,0.00,26.70,27.42,30.55,5.97,30.75,1025.41,2039.83,2446.08,2572.04,2798.86,349.74,322.49,15.70,0000 0000 0000 0000 000000
2013-12-06 01:57:53,0.09,2.90,0.00,26.70,27.42,30.55,5.92,30.38,1025.41,2039.88,2445.70,2571.86,2798.37,349.43,322.14,15.70,0000 0000 0000 0000 000000
2013-12-06 01:58:53,0.29,2.90,0.00,26.71,27.42,30.55,6.04,30.83,1025.41,2039.80,2445.26,2571.36,2798.13,350.92,323.68,15.71,0000 0000 0000 0000 000000
2013-12-06 01:59:54,0.21,2.90,0.00,26.74,27.42,30.53,5.99,30.58,1025.41,2039.82,2445.08,2571.13,2798.02,350.12,322.81,15.72,0000 0000 0000 0000 000000
2013-12-06 02:00:54,0.14,2.90,0.00,26.80,27.42,30.58,5.83,30.54,1025.41,2039.89,2444.62,2571.04,2797.74,349.94,322.58,15.72,0000 0000 0000 0000 000000
2013-12-06 02:01:54,0.21,2.90,0.00,26.79,27.42,30.59,5.95,30.67,1025.41,2039.84,2444.22,2570.88,2797.32,350.53,323.13,15.73,0000 0000 0000 0000 000000
2013-12-06 02:02:54,0.16,2.90,0.00,26.76,27.42,30.59,5.87,30.67,1025.41,2039.78,2444.06,2570.41,2797.11,349.23,321.95,15.73,0000 0000 0000 0000 000000
2013-12-06 02:03:55,0.19,2.90,0.00,26.74,27.42,30.61,5.96,30.63,1025.41,2039.78,2443.68,2570.16,2797.02,349.38,322.19,15.74,0000 0000 0000 0000 000000
2013-12-06 02:04:55,0.15,2.90,0.00,26.78,27.42,30.61,6.05,30.75,1025.42,2039.73,2443.26,2570.05,2796.73,350.36,322.98,15.74,0000 0000 0000 0000 000000
2013-12-06 02:05:55,0.12,2.91,0.00,26.75,27.42,30.57,5.91,30.58,1025.44,2039.72,2443.09,2569.88,2796.27,348.73,321.52,15.75,0000 0000 0000 0000 000000
2013-12-06 02:06:55,0.19,2.91,0.00,26.70,27.42,30.56,6.05,30.88,1025.43,2039.75,2442.69,2569.50,2796.09,350.45,323.16,15.76,0000 0000 0000 0000 000000
2013-12-06 02:07:56,0.27,2.91,0.00,26.69,27.42,30.54,5.86,30.42,1025.46,2039.79,2442.25,2569.20,2796.03,349.44,322.24,15.76,0000 0000 0000 0000 000000
2013-12-06 02:08:56,0.20,2.91,0.00,26.69,27.42,30.52,5.90,30.79,1025.45,2039.87,2442.09,2569.07,2795.89,348.62,321.48,15.77,0000 0000 0000 0000 000000
2013-12-06 02:09:56,0.18,2.91,0.00,26.68,27.42,30.57,6.06,30.67,1025.44,2039.91,2441.82,2568.99,2795.47,350.90,323.59,15.77,0000 0000 0000 0000 000000
2013-12-06 02:10:56,0.15,2.91,0.00,26.70,27.42,30.57,5.91,30.71,1025.43,2039.79,2441.31,2568.68,2795.17,348.18,321.06,15.78,0000 0000 0000 0000 000000
2013-12-06 02:11:57,0.19,2.91,0.00,26.70,27.42,30.60,5.82,30.71,1025.45,2039.79,2441.10,2568.29,2795.05,349.49,322.28,15.79,0000 0000 0000 0000 000000
2013-12-06 02:12:57,0.18,2.91,0.00,26.66,27.42,30.58,5.96,30.79,1025.44,2039.85,2440.72,2568.10,2794.89,350.51,323.26,15.79,0000 0000 0000 0000 000000
2013-12-06 02:13:57,0.23,2.92,0.00,26.66,27.42,30.57,6.02,30.79,1025.48,2039.89,2440.28,2568.01,2794.44,351.02,323.75,15.80,0000 0000 0000 0000 000000
2013-12-06 02:14:57,0.25,2.92,0.00,26.70,27.42,30.58,5.91,30.58,1025.52,2039.86,2440.05,2567.67,2794.16,349.93,322.89,15.80,0000 0000 0000 0000 000000
2013-12-06 02:15:58,0.14,2.92,0.00,26.71,27.42,30.58,5.97,30.75,1025.53,2039.81,2439.54,2567.28,2794.04,350.88,323.58,15.81,0000 0000 0000 0000 000000
2013-12-06 02:16:58,0.20,2.92,0.00,26.68,27.42,30.59,5.97,30.79,1025.52,2039.82,2439.20,2567.09,2793.67,349.25,322.11,15.82,0000 0000 0000 0000 000000
2013-12-06 02:17:58,0.23,2.92,0.00,26.68,27.42,30.59,5.87,30.58,1025.52,2039.85,2438.88,2566.96,2793.26,349.49,322.33,15.82,0000 0000 0000 0000 000000
2013-12-06 02:18:58,0.21,2.92,0.00,26.70,27.42,30.60,5.84,30.83,1025.55,2039.76,2438.36,2566.62,2793.09,349.19,321.87,15.83,0000 0000 0000 0000 000000
2013-12-06 02:19:58,0.14,2.92,0.00,26.68,27.42,30.59,5.93,30.75,1025.60,2039.80,2438.12,2566.25,2792.99,349.98,322.58,15.83,0000 0000 0000 0000 000000
2013-12-06 02:20:59,0.26,2.92,0.00,26.69,27.42,30.59,6.00,30.67,1025.51,2039.84,2437.79,2566.09,2792.63,351.06,323.63,15.84,0000 0000 0000 0000 000000
2013-12-06 02:21:59,0.22,2.92,0.00,26.69,27.42,30.57,5.95,30.79,1025.47,2039.86,2437.29,2565.88,2792.24,350.09,322.86,15.84,0000 0000 0000 0000 000000
2013-12-06 02:22:59,0.26,2.93,0.00,26.70,27.42,30.57,5.86,30.63,1025.48,2039.88,2436.85,2565.40,2792.03,350.79,323.49,15.85,0000 0000 0000 0000 000000
2013-12-06 02:23:59,0.30,2.93,0.00,26.71,27.42,30.54,5.98,30.92,1025.44,2039.89,2436.32,2565.15,2791.52,350.55,323.25,15.86,0000 0000 0000 0000 000000
2013-12-06 02:24:59,0.28,2.93,0.00,26.66,27.42,30.57,5.90,30.71,1025.44,2039.85,2435.87,2564.85,2791.19,349.83,322.63,15.86,0000 0000 0000 0000 000000
2013-12-06 02:26:00,0.23,2.93,0.00,26.63,27.42,30.58,5.99,30.71,1025.44,2039.70,2435.33,2564.36,2790.92,350.38,323.37,15.87,0000 0000 0000 0000 000000
2013-12-06 02:27:00,0.17,2.93,0.00,26.67,27.42,30.61,5.83,30.79,1025.47,2039.71,2434.95,2564.13,2790.41,348.80,322.07,15.87,0000 0000 0000 0000 000000
2013-12-06 02:28:00,0.27,2.93,0.00,26.69,27.42,30.60,5.79,30.71,1025.46,2039.67,2434.36,2563.75,2790.12,349.61,322.22,15.88,0000 0000 0000 0000 000000
2013-12-06 02:29:00,0.28,2.94,0.00,26.67,27.42,30.56,5.92,30.75,1025.48,2039.73,2433.82,2563.29,2789.68,350.68,323.41,15.89,0000 0000 0000 0000 000000
2013-12-06 02:30:01,0.33,2.94,0.00,26.68,27.42,30.56,5.88,30.67,1025.47,2039.76,2433.28,2563.04,2789.24,350.41,323.16,15.89,0000 0000 0000 0000 000000
2013-12-06 02:31:01,0.36,2.94,0.00,26.66,27.42,30.58,6.01,30.54,1025.45,2039.81,2432.68,2562.55,2788.95,350.60,323.34,15.90,0000 0000 0000 0000 000000
2013-12-06 02:32:01,0.39,2.94,0.00,26.70,27.42,30.59,5.85,30.50,1025.45,2039.81,2432.21,2562.19,2788.43,350.55,323.26,15.90,0000 0000 0000 0000 000000
2013-12-06 02:33:02,0.26,2.94,0.00,26.71,27.42,30.59,5.89,30.58,1025.44,2039.84,2431.60,2561.90,2788.12,350.60,323.28,15.91,0000 0000 0000 0000 000000
2013-12-06 02:34:02,0.33,2.95,0.00,26.69,27.42,30.62,5.96,30.63,1025.43,2039.88,2431.11,2561.40,2787.62,350.72,323.41,15.91,0000 0000 0000 0000 000000
2013-12-06 02:35:02,0.42,2.95,0.00,26.72,27.42,30.59,5.75,30.63,1025.44,2039.88,2430.46,2561.13,2787.22,348.53,321.37,15.92,0000 0000 0000 0000 000000
2013-12-06 02:36:02,0.25,2.95,0.00,26.68,27.42,30.58,5.92,30.88,1025.44,2039.86,2430.11,2560.76,2786.99,349.29,322.11,15.93,0000 0000 0000 0000 000000